Theta_e
293 294 294 295 295 294 294 294 294 293 292 291 290 290 290 290 290 290 290 290 290 290 290 290 289 289 288 287 287 286 286 286 286 287 288 287 285 285 285 284 284 284 284 284 284 284 284 284 285 286 287 287 286 286 285 285 285 285 285 285 285 285 284 283 283 283 283 283 284
292 293 294 296 295 294 293 293 293 293 292 291 291 290 290 290 290 290 289 289 289 290 289 289 288 287 287 287 287 286 286 286 285 286 286 285 285 284 284 284 284 284 284 284 284 284 284 284 284 285 286 287 286 285 285 285 285 285 284 284 284 284 284 284 284 283 283 284 284
290 290 291 291 291 291 291 291 290 290 289 290 290 290 290 290 290 290 289 289 288 288 288 288 287 286 286 286 285 285 285 285 285 285 284 284 284 284 284 284 284 284 285 284 284 284 284 283 284 286 287 287 285 285 285 285 285 285 284 284 284 285 285 286 285 284 285 286 284
289 289 289 289 289 289 289 290 289 289 289 290 289 289 289 290 290 290 289 287 287 287 287 286 286 286 286 286 285 285 285 287 287 285 284 284 284 284 284 284 284 284 283 283 283 283 283 283 285 286 286 284 284 284 285 285 285 285 285 284 285 285 285 286 286 286 286 286 285
289 289 289 289 288 288 288 288 288 288 289 289 289 289 289 289 289 288 288 288 288 288 287 286 285 285 286 285 285 284 285 285 287 286 284 284 284 284 284 284 284 283 283 283 283 283 283 283 284 285 285 284 285 285 285 284 284 284 284 285 285 285 286 286 286 286 286 286 285
288 288 288 288 288 288 288 288 287 287 288 288 288 287 288 289 288 288 288 287 287 287 287 288 287 287 286 284 284 284 284 284 284 284 283 283 283 283 283 283 283 283 283 283 283 283 282 282 284 285 285 285 284 284 284 283 283 283 284 285 285 285 285 285 285 286 285 285 284
288 288 288 287 287 288 287 287 287 287 287 287 286 286 286 287 286 286 286 286 286 287 287 288 287 286 285 284 283 283 283 283 283 283 283 283 283 283 283 283 283 283 282 283 282 282 282 282 284 285 286 287 286 285 283 282 283 283 284 284 285 285 285 284 285 285 285 283 283
288 287 287 287 287 287 287 287 287 287 287 287 286 286 286 286 286 286 286 286 286 286 286 286 284 284 283 283 283 283 283 283 283 282 282 283 283 282 282 282 282 282 282 282 282 282 282 282 284 284 284 285 286 285 283 282 282 282 283 283 284 284 284 284 284 284 283 282 282
288 287 287 287 287 286 286 286 286 287 287 286 286 286 286 286 286 286 286 286 286 286 285 285 284 283 283 283 283 283 282 282 282 282 282 282 282 282 282 282 282 282 282 282 282 282 282 282 283 284 284 285 285 284 283 282 282 282 283 283 284 284 284 283 283 282 282 282 282
287 287 287 287 287 287 287 287 287 286 286 286 286 287 288 289 287 286 285 286 286 285 284 284 283 283 283 283 282 282 282 282 282 282 282 282 283 283 282 282 282 282 282 282 282 282 282 282 283 283 282 283 283 283 282 282 282 282 283 284 284 283 283 282 282 282 282 282 282
287 287 287 287 287 287 288 287 287 287 287 286 286 286 287 288 286 286 286 285 284 284 283 283 283 283 283 282 282 282 282 282 282 282 282 282 283 282 282 282 282 282 282 282 282 282 282 283 283 282 282 283 283 283 283 282 282 282 282 283 283 282 282 281 281 281 281 281 281
286 286 286 286 286 287 287 286 286 286 286 285 285 285 285 285 285 285 285 284 284 283 283 283 283 283 282 282 282 283 283 282 282 282 282 282 282 282 282 282 282 282 282 281 282 282 282 282 282 282 282 282 283 283 283 283 282 282 282 282 282 281 281 281 281 281 281 281 281
286 286 286 286 286 286 286 286 285 285 285 285 285 284 284 284 285 285 284 283 283 283 283 283 283 283 282 282 282 282 282 282 282 282 282 282 282 282 282 282 282 282 282 282 282 282 282 282 282 282 282 283 283 283 283 282 282 282 282 282 281 280 280 280 280 281 281 281 281
285 285 285 285 285 285 285 285 285 285 284 284 284 284 284 284 285 285 284 283 283 283 282 282 283 283 283 282 282 282 282 282 282 282 282 282 282 282 282 282 282 282 282 283 282 282 282 283 282 282 282 282 283 283 283 282 282 282 281 281 280 280 280 280 280 281 281 281 282
285 285 285 285 285 284 284 284 285 285 284 285 284 284 284 283 285 285 284 283 282 282 282 282 282 283 283 283 283 282 282 282 282 282 282 282 282 282 282 282 282 282 283 283 283 282 282 282 282 282 282 282 282 282 282 282 282 281 281 280 280 280 280 280 281 281 281 281 282
285 284 284 284 284 284 284 284 284 284 285 285 284 284 284 283 284 284 284 283 282 282 282 282 282 282 282 283 283 283 282 282 282 282 282 282 282 282 282 282 283 283 283 283 283 283 283 282 283 282 282 282 282 282 282 282 281 280 280 279 279 280 280 281 281 282 282 282 282
284 284 284 284 284 283 283 283 284 285 285 285 284 284 284 283 283 284 285 284 283 282 282 282 282 282 282 283 283 283 283 282 282 282 282 282 282 282 283 283 283 283 283 283 283 283 283 282 283 282 282 282 282 282 282 281 281 280 280 279 280 280 281 282 282 282 282 282 282
284 284 283 283 283 283 283 283 284 285 285 284 284 284 283 283 283 283 284 284 283 282 282 282 282 282 282 282 282 283 283 283 282 282 282 282 282 282 283 283 283 283 283 283 283 283 283 282 282 282 282 282 282 282 282 281 280 280 280 280 280 280 281 282 282 282 282 282 283
283 283 283 283 283 283 284 285 285 285 284 284 284 283 283 282 282 282 282 283 283 283 282 282 282 282 282 282 282 282 283 283 283 282 282 282 282 283 283 283 283 283 283 282 282 282 282 282 282 282 282 282 282 282 281 280 280 280 280 280 281 281 281 281 281 282 282 282 282
283 283 283 283 283 283 284 286 286 285 284 284 283 283 283 282 282 282 282 282 283 283 282 282 282 282 282 282 282 282 283 283 282 282 282 282 282 283 283 283 283 283 282 282 282 282 282 282 282 282 282 282 282 281 281 280 280 280 281 281 281 281 281 281 281 282 282 282 282
283 283 283 283 283 284 285 286 285 285 284 284 283 283 283 282 282 282 282 283 283 282 282 281 282 282 282 282 282 281 282 283 282 282 282 283 282 283 283 283 283 283 283 282 282 282 282 282 282 282 282 282 281 281 281 281 281 281 281 281 281 281 281 281 281 282 282 282 282
283 283 283 283 285 286 286 285 285 285 284 284 283 283 283 282 282 282 282 282 282 282 282 282 282 282 282 281 281 281 281 282 282 282 282 282 283 283 283 283 282 282 282 282 282 282 282 282 282 282 282 282 281 281 281 282 282 281 281 281 281 281 281 281 281 281 282 282 282
283 283 284 285 287 287 287 286 285 285 284 284 283 283 282 282 282 281 281 281 282 282 282 281 281 281 281 281 281 281 281 281 281 281 282 282 282 282 282 283 282 282 282 282 282 282 282 283 283 283 283 283 282 282 282 282 282 281 281 281 281 281 281 281 281 281 281 281 281
283 284 286 287 287 286 286 285 285 284 284 283 283 282 282 282 282 281 281 281 282 281 281 281 281 281 281 281 280 281 281 281 281 281 282 282 282 282 282 283 282 282 282 283 284 285 286 286 286 285 285 284 284 283 283 282 281 281 281 280 281 281 281 281 281 281 281 281 281
285 286 287 287 286 286 285 285 284 283 283 283 282 282 282 282 282 281 281 281 281 281 281 280 280 280 280 281 281 281 281 281 281 281 282 282 282 282 282 283 283 283 283 285 288 290 291 290 289 287 286 285 285 284 283 282 281 281 281 281 281 281 281 281 280 281 281 281 281
286 287 287 286 286 285 285 284 284 283 283 282 282 282 282 282 282 281 281 281 281 281 280 280 280 281 282 282 281 281 281 281 281 281 281 282 282 282 282 283 283 283 284 287 290 291 292 292 291 290 288 286 285 284 284 283 282 281 281 281 281 281 281 280 280 280 281 281 281
286 286 286 286 285 285 284 284 283 283 282 282 282 282 281 281 281 281 281 281 280 280 279 279 280 282 284 282 282 281 281 281 281 281 281 281 282 282 282 282 283 283 285 288 290 291 292 292 292 291 290 287 286 284 284 283 282 281 281 281 281 281 280 280 280 281 281 281 281
286 286 285 286 285 284 284 283 283 282 282 282 281 281 281 280 280 280 280 280 279 279 279 280 281 282 282 281 281 281 281 281 281 281 281 281 281 281 281 282 282 283 286 289 291 291 291 291 291 291 291 289 287 285 283 283 282 282 281 281 281 280 280 280 280 281 281 281 281
286 285 285 284 284 283 283 282 282 282 282 281 281 281 280 280 280 279 279 279 279 279 280 280 281 281 281 281 281 281 281 281 281 281 281 281 281 281 281 282 282 284 287 290 291 291 291 291 291 291 291 291 288 286 284 283 283 282 281 281 281 280 280 280 281 281 281 281 281
285 284 284 283 283 282 282 282 282 281 281 281 280 280 280 279 279 279 279 279 279 280 280 281 281 281 281 281 281 281 281 281 281 281 280 280 281 281 282 282 282 283 286 290 290 291 291 291 291 291 291 291 289 287 285 283 282 281 281 281 280 280 280 280 280 281 281 281 282
284 284 283 283 282 282 282 282 281 281 280 280 279 279 279 279 279 279 279 279 279 281 282 281 281 280 280 280 280 280 281 281 281 281 280 280 282 282 282 281 281 283 286 289 290 290 291 291 291 291 290 291 289 287 284 283 282 281 281 281 280 280 280 281 281 281 281 282 282
284 283 283 282 282 282 281 281 280 280 279 279 279 279 279 278 278 278 278 279 280 280 281 280 280 280 280 280 280 280 280 281 281 281 281 281 281 280 280 281 281 282 286 289 290 290 290 290 290 290 290 290 289 286 284 282 281 281 281 280 280 280 281 282 281 281 282 282 282
283 282 282 282 281 281 280 280 279 279 279 279 279 278 278 278 278 278 278 279 280 280 280 280 280 280 280 280 280 280 280 281 281 282 282 281 281 280 280 281 281 283 286 289 290 290 290 290 290 290 290 290 288 286 283 282 281 281 281 281 281 282 281 281 282 282 282 282 282
282 282 281 281 281 280 279 279 278 278 278 278 278 278 278 278 278 278 279 280 280 280 280 280 280 280 280 280 280 280 281 282 282 281 280 280 280 280 280 281 281 284 287 289 289 290 290 290 290 290 290 290 288 285 282 281 281 281 281 282 282 283 283 283 283 283 282 282 282
282 281 281 280 279 279 278 278 278 278 278 278 278 278 278 277 278 278 279 281 281 281 280 280 280 280 280 280 280 280 280 281 281 280 280 280 280 280 280 280 281 284 287 289 289 289 289 289 289 289 289 289 286 284 282 281 281 281 281 282 282 283 283 282 283 283 283 283 282
281 280 280 279 278 278 278 278 278 278 278 278 278 278 277 277 278 278 280 282 281 280 279 279 279 279 279 279 279 280 281 280 280 280 280 281 280 280 280 280 280 283 286 288 289 289 289 289 289 289 289 287 285 283 282 282 282 282 282 282 282 282 282 282 283 283 283 283 282
280 280 279 278 278 278 278 277 278 278 278 278 277 277 277 278 278 278 279 281 280 279 279 279 279 279 279 279 279 280 280 280 280 280 280 281 281 280 280 280 280 282 285 287 288 288 289 289 289 289 288 286 284 283 283 282 283 283 283 282 282 282 282 283 283 283 283 283 283
279 279 279 278 278 278 278 277 278 278 278 277 277 277 277 278 278 278 279 281 280 279 279 279 279 279 279 279 280 280 280 280 280 280 280 280 280 280 280 280 280 281 283 286 287 288 288 289 289 289 288 286 284 283 283 283 283 283 283 282 282 282 282 283 283 283 283 283 284
279 279 279 279 278 278 278 278 278 278 277 277 277 277 277 277 278 279 280 281 280 279 279 279 279 279 279 280 281 281 280 280 280 280 280 280 280 281 281 281 280 280 282 286 287 288 288 288 289 289 288 286 285 284 284 283 283 282 282 282 281 281 282 283 283 283 283 283 285
279 279 278 278 278 278 278 278 278 277 277 277 277 277 277 278 279 280 280 280 279 278 278 279 279 279 280 282 281 281 280 280 280 280 280 280 280 282 283 281 280 280 281 284 286 287 288 288 288 289 288 286 285 285 284 283 282 282 282 281 281 281 282 283 283 283 283 282 284
278 279 279 278 278 278 278 278 278 277 277 277 277 278 279 280 280 280 279 278 278 278 279 279 279 279 280 282 281 280 279 279 279 279 279 280 280 281 282 280 279 278 280 282 285 287 288 288 288 288 288 286 285 285 284 283 282 281 281 281 281 282 282 283 283 283 282 282 282
Wind_Speed
6 5 5 5 5 4 4 4 4 4 3 3 3 3 2 3 2 2 2 2 2 2 2 2 1 1 1 2 2 2 3 3 3 3 3 3 3 3 3 3 3 3 3 3 3 3 3 3 3 3 3 3 3 3 3 3 4 4 4 5 5 5 5 6 6 6 6 6 5
6 6 6 6 6 5 4 4 4 4 3 3 3 2 2 2 2 2 2 2 2 2 2 2 1 2 2 2 2 2 2 3 3 3 3 3 3 3 3 3 3 3 3 3 3 3 3 3 3 3 3 3 3 3 4 4 4 4 5 6 5 4 5 5 6 6 6 6 5
6 6 6 6 5 5 4 3 3 3 3 2 2 2 2 2 2 2 2 2 2 2 2 2 2 2 2 2 2 2 2 2 2 3 3 3 4 4 4 3 4 4 3 3 3 3 3 3 3 3 3 3 4 4 4 4 4 4 5 5 5 4 5 5 5 6 6 6 6
7 6 6 6 6 5 4 3 3 3 3 2 2 2 2 1 1 2 2 2 2 2 2 2 1 1 2 2 2 2 2 2 2 3 3 4 4 4 4 4 4 4 4 3 3 4 3 3 3 3 3 4 4 4 4 4 4 4 4 4 4 4 5 5 5 5 5 6 6
6 5 5 5 5 4 3 3 3 3 2 2 2 2 2 2 2 2 2 2 2 2 1 2 1 1 2 2 3 3 3 3 3 3 3 4 4 4 4 4 4 4 4 4 4 4 4 4 3 3 3 3 4 4 4 5 5 4 4 4 4 4 5 5 5 5 5 5 5
5 5 4 4 4 4 3 3 3 3 3 3 3 3 3 2 2 2 2 2 1 1 1 2 2 2 2 2 3 3 3 3 3 3 3 4 4 4 5 5 5 5 5 5 5 5 4 4 3 3 3 3 3 4 4 5 4 5 5 5 5 5 5 5 5 5 6 6 6
5 5 5 5 5 4 4 3 3 3 3 3 3 3 3 2 2 2 2 1 1 1 1 2 2 2 2 2 2 2 2 3 3 3 3 3 4 5 5 5 5 5 5 5 5 5 4 3 3 4 4 4 4 4 5 5 5 5 6 6 5 5 5 6 5 5 6 7 8
5 5 5 5 5 4 4 3 3 3 3 3 3 3 2 2 2 2 2 1 1 1 1 1 1 2 2 2 2 2 2 3 3 3 3 3 4 5 5 5 5 6 6 5 5 5 4 3 3 3 4 4 4 5 5 6 6 6 7 8 7 6 5 6 5 5 6 7 8
4 4 4 4 4 4 4 3 3 3 3 2 2 2 2 2 2 2 2 2 1 1 1 1 1 1 2 2 1 1 2 2 3 4 4 4 5 5 5 5 6 6 6 5 5 5 4 4 4 4 4 4 5 5 6 7 7 8 8 8 8 7 6 6 6 6 6 6 8
4 4 4 4 4 4 4 3 3 3 3 2 2 1 1 2 2 2 2 1 1 1 1 1 1 2 2 2 1 1 2 2 3 3 4 5 5 5 6 5 6 6 6 5 5 4 4 4 4 5 5 5 6 7 7 7 8 8 8 7 8 8 8 7 6 6 6 6 7
4 3 3 3 3 3 3 3 3 3 2 2 2 1 1 2 2 2 1 2 2 2 2 1 1 2 2 1 1 2 2 2 3 3 4 5 6 6 6 6 6 6 6 6 5 4 4 4 5 6 7 6 6 7 8 8 8 9 9 8 8 9 8 7 6 5 5 6 7
4 3 3 3 3 3 3 3 2 2 2 2 2 2 1 1 1 1 2 3 3 2 1 1 1 1 1 1 2 2 3 3 3 4 5 5 6 6 6 6 6 6 7 7 5 5 5 5 6 7 8 8 7 7 8 9 9 10 10 10 9 8 7 7 6 5 5 6 8
3 3 3 3 3 3 3 3 2 2 2 2 2 2 1 1 1 2 2 3 3 2 1 1 1 1 1 1 2 2 3 3 4 4 5 6 6 6 6 7 7 7 7 7 6 5 5 6 7 8 9 9 8 8 8 9 9 10 10 10 9 8 7 7 6 6 6 7 8
3 3 3 3 3 3 3 3 2 2 2 2 2 2 1 1 1 2 2 3 2 1 1 1 1 1 1 1 2 3 3 4 4 5 5 6 6 6 7 7 7 7 7 7 6 6 7 7 8 8 9 9 9 9 9 9 9 9 9 9 8 7 7 6 7 7 8 8 9
4 3 3 3 3 3 3 3 2 2 2 2 2 1 1 1 1 2 2 2 1 1 1 1 1 2 2 2 2 3 4 4 4 5 6 7 7 7 7 7 8 8 7 7 7 7 7 8 8 8 8 9 9 10 9 9 9 9 8 8 7 7 6 6 7 7 8 9 10
4 4 3 3 3 3 3 2 2 2 2 2 1 1 1 1 1 1 2 2 1 1 1 1 1 2 2 3 3 3 4 4 5 5 6 7 7 7 8 8 8 8 8 8 8 7 7 7 8 8 8 9 9 10 10 9 9 8 7 7 6 6 6 7 7 8 8 9 9
4 3 3 3 3 3 3 2 2 2 2 2 1 1 1 1 1 1 1 1 1 1 1 1 2 2 2 3 3 3 3 4 5 5 6 7 8 8 8 8 9 9 9 9 9 9 8 8 8 8 8 8 9 9 9 9 8 8 7 6 6 6 6 7 7 7 8 9 9
4 3 3 3 3 3 3 2 2 2 2 1 1 1 0 0 0 0 0 0 0 0 1 2 2 2 3 3 4 3 3 4 5 6 7 7 8 8 8 9 9 9 9 8 9 9 9 9 8 8 8 8 9 9 9 8 8 7 7 6 6 6 6 7 7 7 7 8 10
4 3 3 3 3 3 3 2 2 2 1 1 1 0 0 0 0 0 0 0 0 1 1 2 3 3 3 4 4 4 4 4 6 7 7 8 8 8 8 9 9 9 8 8 8 9 9 9 9 9 8 9 9 8 8 8 7 7 7 6 6 6 6 6 6 6 7 8 9
4 4 3 3 3 3 2 2 2 1 1 1 1 0 0 1 0 0 0 1 1 1 1 2 3 3 4 4 5 5 4 4 5 7 7 8 8 8 9 9 9 9 8 8 8 8 9 9 9 9 9 9 9 9 8 8 7 7 6 6 6 6 6 6 6 6 7 8 9
4 3 3 3 3 2 2 2 2 2 1 1 1 1 1 1 1 1 1 1 1 1 1 2 3 4 5 5 6 6 5 4 5 6 7 8 8 8 9 8 8 8 8 8 8 8 9 9 9 9 9 8 8 8 8 7 7 7 6 6 5 5 5 6 6 7 7 8 9
3 3 3 3 2 2 2 2 2 2 1 1 1 1 1 1 1 1 1 1 1 1 2 3 4 5 5 6 6 6 5 5 5 6 7 7 8 8 8 8 8 8 8 8 8 8 9 9 9 9 8 8 8 8 8 7 7 7 6 6 5 5 6 6 6 7 7 8 9
3 3 2 2 2 2 2 2 2 2 1 1 1 1 1 1 1 1 1 1 1 2 3 3 4 5 5 5 5 5 5 5 6 6 7 7 7 8 8 8 8 8 8 8 8 8 8 8 9 8 8 8 8 8 8 7 7 6 6 6 6 6 6 6 7 7 8 8 9
3 3 2 2 2 2 2 2 2 1 1 1 1 1 1 1 1 1 1 2 2 3 3 4 4 4 5 5 5 5 5 6 7 7 7 8 8 8 8 8 7 7 7 7 8 10 10 10 9 9 8 8 8 8 7 7 6 6 6 6 6 7 7 7 7 7 8 9 9
3 3 3 2 2 2 2 2 2 1 1 1 1 1 1 1 1 1 2 2 3 4 4 4 4 4 4 4 4 5 5 6 7 7 8 9 8 8 8 7 7 7 7 7 13 16 18 17 14 12 10 9 8 8 7 6 6 6 6 6 7 7 8 8 7 8 8 9 9
3 3 3 2 2 2 2 2 2 1 1 1 1 1 1 1 1 1 2 3 4 4 4 4 4 4 4 4 4 5 5 6 6 7 8 9 9 8 8 7 7 6 7 10 16 20 22 22 21 18 14 9 8 8 7 6 6 6 6 6 6 7 8 8 8 8 8 9 9
3 3 2 2 2 2 1 1 1 1 1 1 1 1 1 1 1 2 2 3 4 4 3 3 3 4 4 4 5 5 6 6 6 7 7 8 9 9 9 8 7 7 8 13 18 21 22 23 23 21 18 12 9 8 7 7 7 7 6 6 6 6 7 8 8 9 9 9 10
3 3 2 2 2 1 1 1 1 0 1 1 1 1 1 1 1 2 2 3 3 3 3 3 3 3 3 3 5 6 7 7 7 7 7 8 8 9 9 8 8 8 11 16 20 22 23 23 23 22 21 17 11 8 7 7 7 7 6 6 6 6 6 7 7 8 9 10 10
3 3 2 2 2 1 1 0 0 1 1 1 1 1 1 1 2 2 3 3 3 3 3 3 3 3 3 4 5 6 7 7 7 6 7 8 8 9 9 9 8 10 14 19 21 22 23 23 23 23 23 21 13 9 7 7 6 6 6 6 6 6 6 6 7 7 8 9 10
3 3 2 2 1 1 0 0 1 1 1 0 1 1 2 2 2 3 3 3 3 3 3 3 3 4 5 6 6 6 6 7 7 7 7 8 8 9 10 10 9 10 14 19 21 22 23 23 23 23 23 23 17 11 8 7 6 6 6 6 6 6 6 7 7 8 8 9 10
3 3 2 2 1 0 0 1 1 1 0 1 1 2 2 2 2 3 2 2 3 3 3 3 4 5 6 6 5 6 6 7 7 7 7 8 9 10 10 10 10 11 14 19 21 23 23 24 24 24 24 24 18 13 8 7 7 6 6 6 6 6 7 7 7 7 8 10 11
3 2 2 2 1 0 0 1 0 1 1 1 2 2 2 2 2 2 2 2 3 3 4 4 4 5 6 6 6 6 7 7 8 8 8 8 9 9 9 10 10 11 14 19 22 23 24 24 24 24 24 25 19 14 9 8 7 7 6 7 7 7 7 6 6 7 8 10 12
2 2 2 2 1 0 1 1 1 1 2 2 2 2 2 2 2 3 3 2 2 3 3 4 5 5 6 6 6 7 7 8 8 9 9 9 9 9 10 10 9 11 15 20 22 23 24 24 25 25 25 25 19 13 9 8 7 6 6 7 7 7 7 6 6 7 9 11 11
2 2 2 2 1 1 1 1 1 2 2 2 2 2 2 2 3 3 3 3 3 3 3 4 4 4 5 5 6 6 7 8 8 9 9 9 9 9 9 9 9 12 16 21 23 24 24 25 25 25 25 25 17 12 9 8 7 7 7 7 7 6 6 6 7 8 9 11 11
3 2 2 1 1 1 1 2 2 2 2 3 3 3 3 2 3 3 3 3 3 3 3 4 4 4 4 5 5 6 7 8 9 9 9 9 9 10 10 10 10 13 17 21 22 23 24 25 25 26 25 21 14 10 8 8 8 7 7 7 7 6 6 6 7 8 9 10 11
3 3 2 2 1 1 2 2 2 2 2 3 3 3 3 3 3 3 3 3 3 3 4 4 4 4 5 5 5 6 7 8 9 9 9 10 10 10 11 11 10 13 17 20 22 23 24 25 25 26 24 18 11 9 8 8 7 7 7 7 6 6 6 7 8 9 9 10 10
3 3 2 2 2 2 2 2 2 2 2 3 3 3 3 3 3 3 3 3 3 4 4 5 5 5 5 6 6 6 7 7 8 9 10 10 10 10 11 11 11 12 15 19 21 23 24 25 26 25 22 15 11 9 8 7 6 6 6 6 6 6 7 7 8 9 10 10 10
3 3 3 2 1 1 1 1 1 2 2 3 3 3 3 3 3 3 3 3 3 4 4 5 5 6 6 7 7 8 8 8 8 9 10 10 10 10 11 11 11 11 13 18 21 23 24 25 25 25 21 15 11 9 8 6 6 6 6 6 6 7 7 8 8 9 9 10 12
2 3 3 2 1 1 1 1 1 2 3 3 3 3 3 3 3 3 3 3 3 3 4 5 6 7 7 8 8 8 8 9 9 9 9 10 10 10 11 11 11 11 13 17 20 22 24 24 25 25 22 16 12 9 8 6 6 6 7 7 7 7 8 8 8 8 8 9 14
2 2 2 2 1 1 0 1 2 2 3 3 3 3 3 3 3 3 3 3 3 3 4 5 6 7 8 8 8 9 9 9 9 9 9 9 10 11 12 11 11 11 12 16 19 21 23 24 24 25 22 15 12 9 8 7 7 7 7 7 7 8 9 9 8 8 8 8 12
2 2 2 2 1 1 0 1 2 3 3 3 3 3 3 3 3 3 3 3 3 4 4 5 7 8 8 9 8 8 9 9 9 9 9 9 10 11 11 10 10 10 11 13 17 20 22 23 24 24 23 17 13 10 8 8 8 8 8 7 8 8 9 9 8 8 8 9 10
Wind_Direction
87 89 91 92 90 88 85 80 77 77 79 80 81 81 82 86 85 81 77 79 86 87 85 79 70 49 25 17 22 19 13 5 2 0 358 355 346 339 337 338 341 341 341 335 334 332 331 331 328 324 317 311 308 305 304 304 305 306 306 305 304 304 304 304 303 303 305 307 308
83 85 86 86 85 84 81 78 74 72 72 76 84 88 91 92 93 89 84 84 91 92 86 71 57 41 26 17 23 24 20 9 2 358 354 347 338 335 335 336 334 333 332 327 324 322 321 322 323 319 315 311 311 308 304 302 304 306 306 305 303 304 306 305 304 304 306 308 310
81 80 79 79 80 81 83 82 78 74 72 72 76 79 83 88 95 97 96 97 91 84 77 66 52 41 30 19 19 22 20 11 2 356 349 339 334 331 331 331 329 326 323 318 315 313 311 313 313 312 311 311 310 307 304 304 306 307 306 304 304 307 310 308 307 308 309 310 311
78 79 81 83 86 90 93 96 90 85 82 78 69 64 62 64 76 87 93 91 77 73 74 79 64 49 37 30 21 15 11 7 3 355 344 334 328 325 324 325 324 320 315 311 309 307 305 306 307 307 308 306 304 303 301 303 306 306 305 303 306 309 309 308 309 310 310 309 309
77 80 85 91 94 97 98 98 96 95 91 84 72 60 52 49 56 65 72 74 73 79 87 93 78 59 43 39 27 15 5 357 355 349 338 329 321 318 318 320 316 312 308 306 304 303 302 304 305 304 302 298 297 296 296 299 304 306 305 305 308 308 308 307 307 308 307 306 307
84 83 83 87 90 90 89 90 96 98 95 85 76 67 57 52 59 68 76 86 91 89 82 79 70 55 41 35 28 15 360 348 343 337 329 321 315 314 315 314 310 307 306 304 302 302 302 305 307 306 304 301 301 299 298 301 306 308 308 308 307 307 306 305 304 304 305 305 306
92 88 84 82 84 84 86 87 92 92 88 83 80 77 72 67 73 81 90 102 81 59 58 65 62 54 44 35 23 8 352 337 329 323 318 313 310 310 309 307 306 305 304 302 303 303 304 305 308 308 308 309 308 305 304 306 308 309 308 306 305 305 304 302 302 303 304 305 306
88 86 85 84 85 86 88 88 87 84 81 81 87 91 92 88 87 87 82 66 55 50 56 64 66 64 57 45 23 359 339 328 320 314 308 306 306 305 304 304 305 304 302 301 303 304 305 307 310 310 310 313 312 310 309 308 308 307 306 304 303 302 301 300 301 303 304 305 307
83 82 81 81 82 85 88 88 88 88 88 87 94 101 104 100 94 85 74 65 66 66 67 63 66 64 57 44 17 344 322 313 308 305 302 302 303 303 303 303 304 303 302 302 304 305 307 309 311 310 310 311 311 309 307 308 307 306 304 302 302 301 301 299 301 303 304 307 309
90 87 83 82 83 85 87 84 84 86 90 90 89 94 96 97 93 90 90 97 87 69 53 45 51 49 42 25 353 320 303 295 296 298 299 301 300 300 300 301 302 303 304 305 307 309 311 313 312 311 309 308 307 306 305 305 305 303 302 301 302 302 302 302 303 306 309 311 313
99 96 94 94 92 90 87 82 79 79 81 81 74 69 71 79 87 95 99 94 73 57 42 35 49 45 33 359 323 304 295 292 294 297 299 299 298 297 297 297 299 301 303 305 308 311 314 314 312 310 308 307 306 305 304 304 303 302 302 300 301 302 302 303 306 310 314 316 315
102 98 96 97 96 92 87 84 81 77 75 72 64 58 57 62 83 90 83 72 63 51 34 31 52 46 22 330 306 299 297 296 297 298 298 297 296 296 297 298 300 302 304 305 307 311 313 311 310 308 306 305 305 305 305 304 304 303 302 301 302 302 303 306 311 315 318 318 317
102 96 91 88 87 86 85 84 82 79 75 69 60 57 56 52 69 78 76 70 62 46 23 23 40 35 356 309 300 299 299 299 298 298 297 296 296 297 299 301 302 303 304 305 306 308 309 307 306 305 304 304 304 303 303 303 304 303 303 303 303 303 304 308 314 317 319 319 317
97 93 90 85 82 82 83 82 81 80 77 70 63 62 64 55 59 72 77 76 67 49 22 11 10 350 311 292 296 297 298 297 297 297 296 295 296 298 300 301 302 303 303 304 304 305 305 303 302 301 301 302 302 302 302 302 302 302 301 301 302 302 305 309 315 318 320 319 318
92 90 88 84 82 81 82 83 84 82 79 74 69 68 70 63 61 69 76 78 72 59 32 9 340 318 301 292 293 294 294 295 295 296 296 296 297 299 300 301 301 301 302 302 302 301 300 298 298 298 299 300 301 302 302 302 301 300 298 296 296 299 305 310 315 318 319 319 317
94 90 88 85 83 83 83 84 86 84 81 78 71 68 67 61 53 63 69 73 68 51 24 351 315 305 302 299 294 293 293 292 293 294 295 296 297 298 299 300 300 300 300 300 300 299 298 296 296 296 298 299 300 302 302 302 300 297 294 290 292 297 304 309 314 316 317 317 316
97 94 90 89 88 87 86 85 84 83 82 79 69 64 63 53 45 55 66 78 73 36 345 307 294 295 299 298 294 291 290 290 290 291 291 292 294 296 297 297 297 297 297 298 299 298 298 297 296 297 297 298 300 300 300 299 297 294 291 289 292 297 303 309 313 315 315 315 313
101 98 96 93 94 93 92 88 86 85 86 85 77 67 53 45 61 63 73 104 114 91 297 290 286 288 289 289 288 287 286 286 286 287 288 289 291 292 294 294 295 295 296 296 296 297 297 297 298 299 299 299 299 299 298 296 294 291 289 289 293 298 303 308 311 313 314 313 312
107 103 100 100 102 102 100 98 96 97 102 113 116 122 269 255 193 182 324 293 211 220 256 280 286 286 284 282 283 283 284 283 284 285 286 288 291 292 293 294 295 295 296 296 295 296 296 297 299 300 300 300 299 298 296 293 291 289 289 291 295 300 304 308 310 311 312 312 312
113 111 110 112 113 114 114 113 116 122 131 137 139 167 234 243 216 212 275 278 261 247 251 275 284 286 285 283 284 284 284 283 285 287 289 291 293 294 294 294 296 296 297 297 297 297 298 299 300 300 299 298 298 296 294 292 290 289 289 292 297 301 305 308 311 312 312 313 312
119 120 122 125 125 126 128 131 135 137 136 138 148 178 216 238 232 234 247 259 264 269 276 280 281 282 283 283 284 284 284 286 288 290 291 293 294 294 294 296 298 299 299 300 300 300 299 299 299 298 297 296 294 293 292 292 292 292 293 295 300 303 306 309 311 313 314 315 313
127 130 132 135 134 135 137 140 138 133 131 138 160 184 210 239 249 249 250 259 278 290 288 282 278 278 278 278 280 282 285 290 292 292 293 295 296 296 297 299 300 302 303 303 302 301 300 298 296 295 294 294 293 292 291 292 294 296 298 301 303 306 308 311 313 315 315 315 313
135 137 138 139 138 137 137 135 126 120 121 135 168 196 222 252 263 270 280 299 303 296 289 282 278 276 275 275 278 283 289 295 297 298 297 297 298 299 300 302 304 304 304 304 303 302 301 300 299 298 298 297 297 297 296 296 298 300 303 305 307 309 312 314 316 316 316 314 312
136 135 135 135 135 135 132 125 115 114 122 159 199 214 237 261 281 301 314 315 305 295 289 284 282 279 278 279 282 286 292 297 300 301 301 301 301 302 303 305 306 305 304 304 306 309 310 310 309 308 307 306 305 304 302 301 302 303 305 307 310 312 314 315 316 316 316 314 311
133 130 128 128 130 127 123 117 120 131 159 200 211 223 242 270 296 311 315 310 300 293 290 288 287 286 286 289 290 292 294 296 298 300 302 303 303 304 306 308 308 308 307 306 310 312 315 316 316 315 314 312 310 307 306 304 303 303 305 308 312 314 316 316 316 316 314 312 309
128 125 125 127 124 121 120 126 138 156 181 208 220 242 264 276 296 308 308 301 294 292 290 290 290 292 294 296 299 300 299 297 298 299 301 303 305 306 308 310 310 310 310 310 313 315 317 317 317 316 315 312 311 309 307 306 305 305 306 308 312 314 315 316 316 315 313 310 307
122 122 124 120 114 114 122 137 146 162 188 214 239 263 274 285 312 314 305 295 292 292 293 293 291 293 297 300 302 301 300 299 300 300 300 301 304 307 309 310 310 310 310 312 314 316 317 318 317 317 316 313 311 309 308 308 307 307 307 309 310 310 311 311 312 312 312 310 307
120 119 114 102 97 99 110 118 127 167 216 233 246 262 284 319 326 315 303 295 296 298 299 295 291 294 300 303 300 298 298 299 300 301 302 303 304 306 307 309 309 309 311 313 315 316 317 317 317 317 316 315 312 309 308 306 307 307 307 307 306 306 305 305 306 308 309 309 308
118 112 103 93 89 85 79 80 174 225 237 243 260 300 334 344 330 315 305 301 302 300 297 292 296 303 307 303 299 298 299 300 301 303 305 307 308 307 307 308 308 309 311 313 314 316 316 317 317 316 316 317 314 312 309 307 306 306 305 303 302 301 300 300 302 304 305 306 308
114 106 100 96 94 88 90 225 232 241 249 273 347 360 355 343 327 313 303 295 290 285 284 289 301 305 303 298 299 301 302 302 303 306 308 309 309 309 309 309 309 309 310 313 314 315 316 317 317 317 317 317 315 312 308 305 304 303 302 300 296 294 293 294 298 301 303 306 309
110 105 102 99 98 106 233 246 252 270 328 15 14 4 350 332 311 297 284 277 276 280 288 300 304 301 298 297 299 300 301 303 306 308 309 309 309 309 309 309 308 308 309 312 314 316 317 317 317 317 317 317 315 313 309 306 303 300 297 294 291 289 289 292 297 300 303 307 311
109 106 105 102 101 128 270 283 317 360 20 21 11 353 334 311 289 275 267 266 280 293 303 309 306 303 301 302 302 302 303 305 308 309 309 310 309 309 309 309 308 308 310 313 315 317 318 318 319 318 318 318 315 313 310 306 302 297 292 287 285 286 288 293 297 300 304 308 312
108 106 103 101 88 4 334 348 8 21 22 15 360 340 319 300 291 285 282 280 287 296 301 303 302 302 302 303 304 305 306 307 308 309 309 310 309 309 309 309 308 309 311 314 316 318 319 320 320 319 319 319 317 314 311 305 300 295 291 288 286 287 290 293 298 302 306 310 310
107 102 97 94 74 23 1 8 19 23 20 5 345 327 311 299 298 297 294 290 289 290 291 291 291 292 294 296 299 302 305 308 309 310 310 310 309 309 309 309 308 310 313 315 317 319 321 321 322 321 320 320 318 315 309 303 298 294 290 288 289 292 296 299 301 304 307 310 309
107 100 94 85 69 37 21 17 21 21 12 354 330 316 305 293 288 286 286 288 292 294 293 290 288 288 290 293 296 300 304 308 310 310 310 310 310 310 309 308 306 309 313 316 318 321 322 323 323 323 322 321 318 313 307 302 297 293 290 290 292 296 300 302 304 306 308 309 306
106 102 94 79 58 40 29 24 21 13 358 335 316 306 299 291 281 276 278 288 296 298 296 293 295 297 299 300 302 305 307 309 309 310 310 311 311 311 309 308 306 309 313 317 320 323 324 325 325 324 323 321 317 310 305 300 297 295 294 296 299 302 305 306 307 308 308 307 303
106 104 98 81 57 38 29 27 17 357 334 312 299 292 289 287 283 280 281 293 299 298 297 295 298 300 301 303 305 306 306 307 308 309 310 311 311 310 309 308 308 310 314 319 322 324 325 326 326 325 324 321 316 310 305 302 301 302 303 304 306 309 310 310 310 309 308 305 302
106 105 100 87 66 41 23 21 1 328 304 292 284 279 278 281 284 283 284 290 293 294 295 297 299 300 300 302 304 305 305 306 307 308 309 309 309 308 308 309 309 312 315 320 323 325 326 327 327 327 326 322 317 313 310 308 310 311 313 314 314 314 314 313 312 310 308 306 304
108 106 103 99 90 67 22 356 313 291 282 280 281 282 282 282 282 281 281 283 281 285 291 295 298 299 301 306 308 309 309 307 307 307 307 306 306 307 309 310 311 313 316 320 323 325 327 328 328 328 328 324 320 318 317 317 317 318 319 321 319 317 315 315 314 312 309 305 304
108 104 103 103 108 105 45 301 280 271 268 273 281 283 282 278 278 279 281 282 281 283 288 293 296 300 304 309 311 311 310 308 307 305 304 303 305 308 311 311 312 313 315 319 322 325 328 330 330 331 330 326 324 323 323 323 322 323 324 324 321 319 318 318 317 314 309 303 301
97 96 94 96 106 122 225 276 274 270 269 272 274 274 274 275 278 283 288 292 290 291 294 297 300 303 306 311 312 310 309 307 305 304 303 304 305 309 311 311 311 311 314 317 323 326 329 331 332 333 333 330 328 327 327 327 326 325 325 324 323 321 319 319 317 313 306 301 298